Location: Allos
(44.2333°N, 6.6333°E)
Time: 22:01:39
(UTC+00:00)

M-CUBED/EXP-1 PRIME - Visible Passes

Search period start: 05 May 2021 00:00
Search period end: 15 May 2021 00:00
Orbit: 428 x 659 km, 101.7° (Epoch: 05 May)

Date Brightness Start Highest point End Pass type
(mag) Time Alt. Az. Time Alt. Az. Time Alt. Az.
05 May ? 23:17:22 10° NNE 23:19:11 26° N 23:19:11 26° N visible
06 May ? 23:11:06 10° NNE 23:12:48 25° NNE 23:12:48 25° NNE visible
07 May ? 23:04:51 10° NNE 23:06:26 24° NNE 23:06:26 24° NNE visible
08 May ? 00:41:30 10° NW 00:42:00 10° NW 00:42:00 10° NW visible
08 May ? 22:58:38 10° NNE 23:00:03 21° NE 23:00:03 21° NE visible
09 May ? 00:34:20 10° NNW 00:35:37 12° NW 00:35:37 12° NW visible
09 May ? 22:52:27 10° NNE 22:53:40 19° NE 22:53:40 19° NE visible
10 May ? 00:27:36 10° NNW 00:29:14 14° NW 00:29:14 14° NW visible
10 May ? 22:46:18 10° NE 22:47:16 16° NE 22:47:16 16° NE visible
11 May ? 00:21:00 10° NNW 00:22:51 17° NW 00:22:51 17° NW visible
11 May ? 22:40:12 10° NE 22:40:53 14° NE 22:40:53 14° NE visible
12 May ? 00:14:29 10° N 00:16:27 20° NW 00:16:27 20° NW visible
12 May ? 22:34:10 10° NE 22:34:29 11° NE 22:34:29 11° NE visible
13 May ? 00:08:01 10° N 00:10:04 23° NW 00:10:04 23° NW visible
14 May ? 00:01:35 10° N 00:03:40 26° NNW 00:03:40 26° NNW visible
